Regional Weather Roundup
Issued by NWS

Home | Current Version | Previous Version | Graphics & Text | Print | Product List | Glossary Off
Versions: 1 2 3 4 5 6 7 8 9 10 11 12 13 14 15 16 17 18 19 20 21 22 23 24 25 26 27 28 29 30 31 32 33 34 35 36 37 38 39 40 41 42 43 44 45 46 47 48 49 50

000
ASUS43 KMKX 180621
RWRWI

WISCONSIN REGIONAL WEATHER ROUNDUP
NATIONAL WEATHER SERVICE MILWAUKEE/SULLIVAN WI
100 AM CDT THU SEP 18 2014

NOTE: "FAIR" INDICATES FEW OR NO CLOUDS BELOW 12,000 FEET WITH NO
SIGNIFICANT WEATHER AND/OR OBSTRUCTIONS TO VISIBILITY.

WIZ001-002-006>008-014>016-023>028-180700-
NORTHWEST WISCONSIN

CITY           SKY/WX    TMP DP  RH WIND       PRES   REMARKS
SUPERIOR ARPT  CLOUDY    44  39  82 E8        30.15R
6HR MIN TEMP:  44; 6HR MAX TEMP:  48;

ASHLAND        CLOUDY    43  39  86 NE8       30.15S
6HR MIN TEMP:  40; 6HR MAX TEMP:  46;

HAYWARD        MOCLDY    44  41  89 NE3       30.12R
6HR MIN TEMP:  45; 6HR MAX TEMP:  49;

SIREN          CLOUDY    46  42  86 E6        30.10S
6HR MIN TEMP:  46; 6HR MAX TEMP:  63;

RICE LAKE      CLEAR     46  44  92 N6        30.10R
6HR MIN TEMP:  46; 6HR MAX TEMP:  65;

LADYSMITH      MOCLDY    46  45  95 N5        30.11S
6HR MIN TEMP:  46; 6HR MAX TEMP:  62;

EAU CLAIRE     CLEAR     51  48  89 NE6       30.06R
6HR MIN TEMP:  51; 6HR MAX TEMP:  66;

MENOMONIE      CLEAR     50  48  92 N5        30.07R
6HR MIN TEMP:  50; 6HR MAX TEMP:  67;

NEW RICHMOND   CLEAR     48  47  95 E6        30.07R
6HR MIN TEMP:  48; 6HR MAX TEMP:  65;

OSCEOLA        CLEAR     49  49  99 NE5       30.10R
6HR MIN TEMP:  49; 6HR MAX TEMP:  67;

$$

WIZ003>005-009-010-017-018-180700-
NORTH CENTRAL WISCONSIN

CITY           SKY/WX    TMP DP  RH WIND       PRES   REMARKS
WOODRUFF       CLOUDY    43  40  89 NE6       30.11R
6HR MIN TEMP:  43; 6HR MAX TEMP:  57;

RHINELANDER    CLOUDY    45  41  86 NE7       30.11R
6HR MIN TEMP:  45; 6HR MAX TEMP:  56;

EAGLE RIVER    CLOUDY    41  37  86 NE8       30.12R
6HR MIN TEMP:  41; 6HR MAX TEMP:  52;

LAND O LAKES   CLOUDY    39  36  89 NE5       30.13S
6HR MIN TEMP:  39; 6HR MAX TEMP:  48;

PHILLIPS       CLOUDY    46  44  91 NE7       30.10R
6HR MIN TEMP:  45; 6HR MAX TEMP:  58;

TOMAHAWK       MOCLDY    45  42  88 E6        30.11R
6HR MIN TEMP:  45; 6HR MAX TEMP:  59;

MEDFORD        CLEAR     46  45  97 NE6       30.08R
6HR MIN TEMP:  46; 6HR MAX TEMP:  61;

MERRILL        CLOUDY    49  47  93 NE5       30.09R
6HR MIN TEMP:  49; 6HR MAX TEMP:  61;

$$

WIZ029-030-035-036-043>047-180700-
CENTRAL WISCONSIN

CITY           SKY/WX    TMP DP  RH WIND       PRES   REMARKS
WAUSAU         CLOUDY    50  47  89 E9        30.08S
6HR MIN TEMP:  50; 6HR MAX TEMP:  63;

MOSINEE        PTCLDY    46  46 100 E8        30.10R
MARSHFIELD     CLEAR     52  50  93 E9        30.07R
6HR MIN TEMP:  52; 6HR MAX TEMP:  63;

STEVENS POINT  PTCLDY    49  46  87 E10       30.09R
6HR MIN TEMP:  48; 6HR MAX TEMP:  63;

WAUPACA        MOCLDY    52  48  87 E10       30.10R
6HR MIN TEMP:  51; 6HR MAX TEMP:  65;

WAUTOMA        MOCLDY    52  50  93 E8        30.09R
6HR MIN TEMP:  47; 6HR MAX TEMP:  60;

WISC RAPIDS    CLEAR     52  49  89 E10       30.08R
6HR MIN TEMP:  49; 6HR MAX TEMP:  60;

CAMP DOUGLAS   FOG       41  41 100 CALM      30.05R VSB 1/2
6HR MIN TEMP:  41; 6HR MAX TEMP:  60;

$$

WIZ011>013-019>022-031-037>040-048>050-180700-
NORTHEAST WISCONSIN

CITY           SKY/WX    TMP DP  RH WIND       PRES   REMARKS
ANTIGO         CLOUDY    45  43  93 E7        30.10S
6HR MIN TEMP:  45; 6HR MAX TEMP:  60; 6HR PCP:  0.06;

STURGEON BAY   CLOUDY    46  39  76 NE10      30.12R
6HR MIN TEMP:  46; 6HR MAX TEMP:  61;

GREEN BAY      CLOUDY    51  46  83 NE16G25   30.10R
6HR MIN TEMP:  51; 6HR MAX TEMP:  62;

MANITOWOC      CLOUDY    51  47  86 NE8G21    30.09R
6HR MIN TEMP:  51; 6HR MAX TEMP:  58;

APPLETON       MOCLDY    50  45  81 NE13G20   30.09R
CLINTONVILLE   MOCLDY    45  41  87 E7        30.11S
OSHKOSH        CLOUDY    53  50  89 NE10G20   30.07R
6HR MIN TEMP:  53; 6HR MAX TEMP:  59;

$$

WIZ032>034-041-042-053>061-180700-
SOUTHWEST WISCONSIN

CITY           SKY/WX    TMP DP  RH WIND       PRES   REMARKS
LA CROSSE      CLEAR     53  50  89 SE6       30.04R
6HR MIN TEMP:  53; 6HR MAX TEMP:  66;

SPARTA         CLEAR     44  44  98 CALM      30.05S
6HR MIN TEMP:  43; 6HR MAX TEMP:  63;

VIROQUA        FAIR      50  50 100 CALM      30.05R
6HR MIN TEMP:  49; 6HR MAX TEMP:  60;

BOSCOBEL       FOG       49  47  93 CALM      30.05S VSB 1/4
6HR MIN TEMP:  48; 6HR MAX TEMP:  65;

PRAIRIE DU CHI PTCLDY    49  48  95 CALM      30.04S
6HR MIN TEMP:  49; 6HR MAX TEMP:  64;

PLATTEVILLE    FAIR      52  48  87 CALM      30.04F
6HR MIN TEMP:  51; 6HR MAX TEMP:  65;

$$

WIZ056-057-062-063-064-067-068-180700-
SOUTH CENTRAL WISCONSIN

CITY           SKY/WX    TMP DP  RH WIND       PRES   REMARKS
BARABOO/DELLS  CLEAR     47  46  93 CALM      30.05R
6HR MIN TEMP:  47; 6HR MAX TEMP:  60;

LONE ROCK      FOG       51  47  86 CALM      30.05R VSB 1/4
6HR MIN TEMP:  49; 6HR MAX TEMP:  66;

WATERTOWN      CLEAR     47  47 100 CALM      30.04S
6HR MIN TEMP:  46; 6HR MAX TEMP:  61;

MADISON        CLEAR     48  47  96 CALM      30.05R FOG
6HR MIN TEMP:  48; 6HR MAX TEMP:  60;

MIDDLETON      FAIR      47  47  99 CALM      30.05S
6HR MIN TEMP:  46; 6HR MAX TEMP:  61;

MONROE         CLEAR     57  48  72 S5        30.04S
JANESVILLE     CLEAR     50  46  87 CALM      30.04S FOG
$$

WIZ051-052-058>065-066-070>072-180700-
SOUTHEAST WISCONSIN

CITY           SKY/WX    TMP DP  RH WIND       PRES   REMARKS
MILWAUKEE      CLEAR     56  47  71 W3        30.04S
6HR MIN TEMP:  55; 6HR MAX TEMP:  60;

WAUKESHA       CLEAR     46  45  93 CALM      30.05S
MILWAUKEE/TIMM CLEAR     50  45  81 CALM      30.05S
RACINE         CLEAR     51  48  89 CALM      30.05S
6HR MIN TEMP:  51; 6HR MAX TEMP:  61;

BURLINGTON     FOG       40  40 100 CALM      30.04S VSB 3/4
6HR MIN TEMP:  40; 6HR MAX TEMP:  59;

KENOSHA        CLEAR     48  47  96 W3        30.04S
6HR MIN TEMP:  47; 6HR MAX TEMP:  59;

FOND DU LAC    CLOUDY    53  50  89 NE10      30.08R
6HR MIN TEMP:  49; 6HR MAX TEMP:  62;

SHEBOYGAN      CLEAR     50  47  89 N10       30.07R
6HR MIN TEMP:  48; 6HR MAX TEMP:  60;

WEST BEND      CLEAR     50  46  87 NE6       30.06R
JUNEAU         CLEAR     52  48  86 N5        30.06R
6HR MIN TEMP:  49; 6HR MAX TEMP:  61;

$$

LSZ147-162-180700-
LAKE SUPERIOR

STATION/POSITION TIME  TEMP    WIND        PRES    WAVE
                       AIR SEA DIR/SP/G            HT/PER
                 (UTC) (F)     (DEG/KT/KT) (MB)    (FT/S)
W MID LAKE BUOY  0550   44 47  100/ 12/ 14 1021.8R   3/ 6
DEVILS ISLAND    0600   45      80/ 16/ 17 1022.0R
PORT WING        0500   43      90/  3/  5 1021.0S
SAXON HARBOR     0500   46     100/  1/  9 1020.7S
$$

LMZ867-665-643>646-180700-
LAKE MICHIGAN

STATION/POSITION TIME  TEMP    WIND        PRES    WAVE
                       AIR SEA DIR/SP/G            HT/PER
                 (UTC) (F)     (DEG/KT/KT) (MB)    (FT/S)
N MID LAKE BUOY  0550   48 58   10/ 16/ 21 1019.6R   4/ 5
NORTHPORT PIER   0500   47      10/ 11/ 21 1020.0R
KEWAUNEE LAKESHO 0500   51      30/ 13/ 18 1017.7R
SHEBOYGAN LAKESH 0600   51 49   10/ 19/ 22 1018.7R
PORT WASHINGTON  0400   53     250/  2/  3 1017.3R
ATWATER BUOY     0600   58     240/  6/  8 1018.1S
MILWAUKEE LAKESH 0600   58     280/  2/  3   N/A
S MID LAKE BUOY  0550   63 65  220/  6/  8 1017.3R   0
KENOSHA   LAKESH 0600   56     250/  3/  4 1016.9S
$$

TC  - TEMPERATURE IN CELSIUS
VSB - VISIBILITY IN STATUTE MILES
WCI - WIND CHILL INDEX
HX  - HEAT INDEX




USA.gov is the U.S. government's official web portal to all federal, state and local government web resources and services.